Location: Ferchesar
(52.6477°N, 12.4298°E)
Time: 04:17:08
(UTC+01:00)

Vanguard 1 Rocket - Pass Details

Date: 11 December 2021
Orbit: 651 x 4224 km, 34.3° (Epoch: 15 January)

Event Time Altitude Azimuth Distance (km) Brightness Sun altitude
Exits shadow 03:51:41 33° 190° (S) 3,358 10.0 -37.9°
Maximum altitude 03:53:10 34° 179° (S) 3,480 10.1 -37.7°
Drops below altitude 10° 04:09:00 10° 125° (SE) 6,573 12.2 -35.3°
Sets 04:15:46 0° 119° (ESE) 8,035 12.9 -34.3°
